Location: Newark
(54.6833°N, 25.2833°E)
Time: 12:44:05
(UTC+00:00)

SR - Visible Passes

Search period start: 21 January 2021 00:00
Search period end: 31 January 2021 00:00
Orbit: 575 x 880 km, 66.7° (Epoch: 21 January)

Date Brightness Start Highest point End Pass type
(mag) Time Alt. Az. Time Alt. Az. Time Alt. Az.
21 Jan ? 02:55:17 10° SSE 02:58:54 21° ESE 03:02:44 10° ENE visible
21 Jan ? 04:35:21 10° SW 04:40:16 87° NW 04:45:43 10° NE visible
22 Jan ? 02:08:02 10° ESE 02:09:42 12° ESE 02:11:24 10° E visible
22 Jan ? 03:46:37 15° SSW 03:50:34 58° SE 03:55:50 10° NE visible
22 Jan ? 05:28:06 10° WSW 05:32:54 42° NNW 05:38:09 10° NE visible
23 Jan ? 02:59:03 25° SSE 03:01:03 34° ESE 03:05:48 10° NE visible
23 Jan ? 04:38:31 13° WSW 04:42:53 60° NW 04:48:19 10° NE visible
24 Jan ? 02:11:17 20° ESE 02:11:41 20° ESE 02:15:27 10° ENE visible
24 Jan ? 03:50:44 33° SW 03:53:01 89° SE 03:58:29 10° NE visible
24 Jan ? 05:31:08 10° W 05:35:47 33° NNW 05:40:48 10° NE visible
25 Jan ? 01:23:21 11° E 01:23:21 11° E 01:23:52 10° E visible
25 Jan ? 03:02:47 52° SSE 03:03:20 55° ESE 03:08:35 10° NE visible
25 Jan ? 04:42:13 19° W 04:45:38 43° NNW 04:50:56 10° NE visible
26 Jan ? 02:14:43 31° E 02:14:43 31° E 02:18:33 10° NE visible
26 Jan ? 03:54:08 43° W 03:55:37 62° NW 04:01:06 10° NE visible
26 Jan ? 05:34:15 10° WNW 05:38:45 28° NNW 05:43:32 10° NE visible
27 Jan ? 01:26:34 15° ENE 01:26:34 15° ENE 01:28:08 10° ENE visible
27 Jan ? 03:05:59 82° ENE 03:05:59 82° ENE 03:11:16 10° NE visible
27 Jan ? 04:45:23 19° W 04:48:30 34° NNW 04:53:34 10° NE visible
28 Jan ? 02:17:45 38° ENE 02:17:45 38° ENE 02:21:22 10° NE visible
28 Jan ? 03:57:10 38° WNW 03:58:22 45° NNW 04:03:42 10° NE visible
29 Jan ? 01:29:28 19° ENE 01:29:28 19° ENE 01:31:17 10° NE visible
29 Jan ? 03:08:52 61° N 03:08:52 61° N 03:13:52 10° NE visible
29 Jan ? 04:48:17 17° WNW 04:51:27 28° NNW 04:56:18 10° NE visible
30 Jan ? 02:20:32 40° NE 02:20:32 40° NE 02:24:02 10° NE visible
30 Jan ? 03:59:56 31° NW 04:01:13 35° NNW 04:06:21 10° NE visible
